• In Czech Republic
  • List of Countries
  • For 7 days
  • Water Temperature
  • Satellite Maps
  • Weather Map
  • Weather Widgets
  • user-avatar
    Login

    Hourly Weather Belmopan

    Today, 19 August, Saturday

    Time Temperature Precipitation Wind Pressure Humidity
    00:00 +23°C° 0 mm 0 mps 753 mmHg 99%
    01:00 +23°C° 0 mm 0 mps 753 mmHg 99%
    02:00 +23°C° 0 mm 0 mps 752 mmHg 99%
    03:00 +23°C° 0 mm 0 mps 752 mmHg 99%
    04:00 +23°C° 0 mm 0 mps 752 mmHg 99%
    05:00 +23°C° 0 mm 0 mps 752 mmHg 99%
    06:00 +23°C° 0 mm 0 mps 752 mmHg 99%
    07:00 +25°C° 0.3 mm 0 mps 753 mmHg 91%
    08:00 +27°C° 0.3 mm 0 mps 753 mmHg 84%
    09:00 +29°C° 0.3 mm 0 mps 753 mmHg 76%
    10:00 +32°C° 0 mm 1 mps 753 mmHg 65%
    11:00 +34°C° 0 mm 1 mps 752 mmHg 54%
    12:00 +37°C° 0 mm 2 mps 752 mmHg 42%
    13:00 +37°C° 0 mm 2 mps 752 mmHg 41%
    14:00 +37°C° 0 mm 2 mps 751 mmHg 40%
    15:00 +37°C° 0 mm 2 mps 751 mmHg 39%
    16:00 +36°C° 0 mm 2 mps 750 mmHg 47%
    17:00 +34°C° 0 mm 2 mps 750 mmHg 56%
    18:00 +31°C° 0 mm 2 mps 750 mmHg 64%
    19:00 +29°C° 0 mm 1 mps 751 mmHg 74%
    20:00 +28°C° 0 mm 1 mps 751 mmHg 83%
    21:00 +26°C° 0 mm 1 mps 751 mmHg 93%
    22:00 +26°C° 0 mm 1 mps 751 mmHg 95%
    23:00 +26°C° 0 mm 1 mps 752 mmHg 96%

    Tomorrow, 20 August, Sunday

    Time Temperature Precipitation Wind Pressure Humidity
    00:00 +26°C° 0 mm 1 mps 752 mmHg 98%
    01:00 +26°C° 0.1 mm 1 mps 751 mmHg 98%
    02:00 +23°C° 0.1 mm 0 mps 751 mmHg 98%
    03:00 +23°C° 0.1 mm 0 mps 751 mmHg 98%
    04:00 +23°C° 0.3 mm 0 mps 751 mmHg 98%
    05:00 +25°C° 0.3 mm 1 mps 751 mmHg 98%
    06:00 +25°C° 0.3 mm 1 mps 751 mmHg 98%
    07:00 +27°C° 0.1 mm 1 mps 752 mmHg 89%
    08:00 +29°C° 0.1 mm 1 mps 752 mmHg 79%
    09:00 +30°C° 0.1 mm 0 mps 752 mmHg 70%
    10:00 +32°C° 1.2 mm 1 mps 752 mmHg 72%
    11:00 +32°C° 1.2 mm 1 mps 752 mmHg 74%
    12:00 +33°C° 1.2 mm 1 mps 751 mmHg 77%
    13:00 +32°C° 1.8 mm 1 mps 751 mmHg 79%
    14:00 +31°C° 1.8 mm 2 mps 750 mmHg 81%
    15:00 +31°C° 1.8 mm 2 mps 749 mmHg 83%
    16:00 +30°C° 0.9 mm 1 mps 750 mmHg 85%
    17:00 +29°C° 0.9 mm 1 mps 750 mmHg 86%
    18:00 +28°C° 0.9 mm 1 mps 750 mmHg 88%
    19:00 +28°C° 0.3 mm 1 mps 750 mmHg 91%
    20:00 +27°C° 0.3 mm 1 mps 751 mmHg 93%
    21:00 +26°C° 0.3 mm 1 mps 752 mmHg 95%
    22:00 +26°C° 0 mm 1 mps 752 mmHg 96%
    23:00 +26°C° 0 mm 1 mps 752 mmHg 97%

    Day after tomorrow, 21 August, Monday

    Time Temperature Precipitation Wind Pressure Humidity
    00:00 +24°C° 0 mm 0 mps 751 mmHg 98%
    01:00 +24°C° 0 mm 0 mps 751 mmHg 98%
    02:00 +24°C° 0 mm 0 mps 751 mmHg 98%
    03:00 +24°C° 0 mm 0 mps 751 mmHg 99%
    04:00 +24°C° 0 mm 0 mps 751 mmHg 99%
    05:00 +24°C° 0 mm 0 mps 751 mmHg 99%
    06:00 +24°C° 0 mm 0 mps 752 mmHg 99%
    07:00 +25°C° 0.2 mm 0 mps 752 mmHg 92%
    08:00 +27°C° 0.2 mm 0 mps 752 mmHg 84%
    09:00 +29°C° 0.2 mm 0 mps 753 mmHg 77%
    10:00 +30°C° 0.5 mm 0 mps 752 mmHg 76%
    11:00 +32°C° 0.5 mm 1 mps 752 mmHg 75%
    12:00 +33°C° 0.5 mm 1 mps 752 mmHg 74%
    13:00 +32°C° 1.1 mm 1 mps 751 mmHg 78%
    14:00 +31°C° 1.1 mm 1 mps 751 mmHg 82%
    15:00 +30°C° 1.1 mm 1 mps 750 mmHg 86%
    16:00 +29°C° 0.8 mm 1 mps 751 mmHg 90%
    17:00 +28°C° 0.8 mm 1 mps 751 mmHg 94%
    18:00 +27°C° 0.8 mm 1 mps 751 mmHg 98%
    19:00 +25°C° 0.1 mm 0 mps 751 mmHg 98%
    20:00 +24°C° 0.1 mm 0 mps 752 mmHg 98%
    21:00 +24°C° 0.1 mm 0 mps 752 mmHg 99%
    22:00 +24°C° 1.4 mm 0 mps 752 mmHg 99%
    23:00 +24°C° 1.4 mm 0 mps 752 mmHg 99%

    22 August, Tuesday

    Time Temperature Precipitation Wind Pressure Humidity
    00:00 +24°C° 1.4 mm 0 mps 752 mmHg 99%
    01:00 +24°C° 1.7 mm 0 mps 751 mmHg 99%
    02:00 +23°C° 1.7 mm 0 mps 751 mmHg 99%
    03:00 +23°C° 1.7 mm 0 mps 750 mmHg 99%
    04:00 +25°C° 1.6 mm 1 mps 750 mmHg 99%
    05:00 +26°C° 1.6 mm 1 mps 750 mmHg 99%
    06:00 +26°C° 1.6 mm 1 mps 750 mmHg 99%
    07:00 +26°C° 2 mm 1 mps 751 mmHg 99%
    08:00 +26°C° 2 mm 1 mps 751 mmHg 98%
    09:00 +27°C° 2 mm 2 mps 752 mmHg 98%
    10:00 +27°C° 2.8 mm 2 mps 751 mmHg 98%
    11:00 +27°C° 2.8 mm 2 mps 751 mmHg 97%
    12:00 +27°C° 2.8 mm 1 mps 751 mmHg 97%
    13:00 +28°C° 2.1 mm 1 mps 750 mmHg 97%
    14:00 +28°C° 2.1 mm 1 mps 749 mmHg 97%
    15:00 +28°C° 2.1 mm 1 mps 749 mmHg 96%
    16:00 +27°C° 3 mm 1 mps 749 mmHg 97%
    17:00 +27°C° 3 mm 2 mps 749 mmHg 97%
    18:00 +26°C° 3 mm 2 mps 749 mmHg 98%
    19:00 +26°C° 2.2 mm 2 mps 750 mmHg 98%
    20:00 +26°C° 2.2 mm 2 mps 750 mmHg 98%
    21:00 +26°C° 2.2 mm 2 mps 751 mmHg 98%
    22:00 +26°C° 3.4 mm 2 mps 751 mmHg 98%
    23:00 +26°C° 3.4 mm 2 mps 750 mmHg 98%

    23 August, Wednesday

    Time Temperature Precipitation Wind Pressure Humidity
    00:00 +26°C° 3.4 mm 2 mps 750 mmHg 98%
    01:00 +26°C° 5 mm 2 mps 750 mmHg 98%
    02:00 +26°C° 5 mm 1 mps 749 mmHg 98%
    03:00 +26°C° 5 mm 1 mps 749 mmHg 99%
    04:00 +26°C° 2.7 mm 1 mps 749 mmHg 99%
    05:00 +26°C° 2.7 mm 1 mps 750 mmHg 99%
    06:00 +26°C° 2.7 mm 1 mps 750 mmHg 99%
    07:00 +26°C° 1 mm 1 mps 750 mmHg 99%
    08:00 +26°C° 1 mm 1 mps 751 mmHg 99%
    09:00 +25°C° 1 mm 0 mps 751 mmHg 98%
    10:00 +25°C° 1 mm 0 mps 751 mmHg 98%
    11:00 +25°C° 1 mm 0 mps 750 mmHg 97%
    12:00 +25°C° 1 mm 0 mps 750 mmHg 96%
    13:00 +25°C° 0.5 mm 0 mps 750 mmHg 96%
    14:00 +26°C° 0.5 mm 0 mps 749 mmHg 96%
    15:00 +26°C° 0.5 mm 0 mps 748 mmHg 95%
    16:00 +25°C° 0 mm 0 mps 748 mmHg 95%
    17:00 +25°C° 0 mm 0 mps 748 mmHg 95%
    18:00 +25°C° 0 mm 0 mps 748 mmHg 95%
    19:00 +25°C° 0 mm 0 mps 749 mmHg 95%
    20:00 +24°C° 0 mm 0 mps 749 mmHg 96%
    21:00 +26°C° 0 mm 1 mps 750 mmHg 97%
    22:00 +26°C° 0.5 mm 1 mps 749 mmHg 97%
    23:00 +26°C° 0.5 mm 1 mps 749 mmHg 98%

    24 August, Thursday

    Time Temperature Precipitation Wind Pressure Humidity
    00:00 +26°C° 0.5 mm 1 mps 749 mmHg 98%
    01:00 +26°C° 0.7 mm 1 mps 748 mmHg 98%
    02:00 +26°C° 0.7 mm 1 mps 748 mmHg 98%
    03:00 +26°C° 0.7 mm 1 mps 748 mmHg 98%
    04:00 +26°C° 0.5 mm 1 mps 748 mmHg 98%
    05:00 +26°C° 0.5 mm 1 mps 748 mmHg 98%
    06:00 +26°C° 0.5 mm 1 mps 748 mmHg 98%
    07:00 +28°C° 0.3 mm 1 mps 748 mmHg 92%
    08:00 +29°C° 0.3 mm 2 mps 749 mmHg 86%
    09:00 +31°C° 0.3 mm 2 mps 749 mmHg 79%
    10:00 +32°C° 1.2 mm 2 mps 748 mmHg 78%
    11:00 +32°C° 1.2 mm 2 mps 748 mmHg 77%
    12:00 +34°C° 1.2 mm 2 mps 748 mmHg 76%
    13:00 +34°C° 1.5 mm 2 mps 747 mmHg 75%
    14:00 +34°C° 1.5 mm 2 mps 746 mmHg 74%
    15:00 +34°C° 1.5 mm 2 mps 746 mmHg 73%
    16:00 +32°C° 0.1 mm 2 mps 746 mmHg 75%
    17:00 +31°C° 0.1 mm 2 mps 746 mmHg 78%
    18:00 +30°C° 0.1 mm 2 mps 747 mmHg 80%
    19:00 +29°C° 0 mm 2 mps 747 mmHg 84%
    20:00 +28°C° 0 mm 2 mps 747 mmHg 88%
    21:00 +28°C° 0 mm 2 mps 748 mmHg 92%
    22:00 +28°C° 0.2 mm 2 mps 748 mmHg 91%
    23:00 +28°C° 0.2 mm 2 mps 747 mmHg 91%
    Show more